{"data":{"norad_id":49384,"intl_designator":"2021-099B","name":"YAOGAN-32 02B","alt_names":[],"object_type":"PAYLOAD","status":"ACTIVE","operator":null,"country":"PRC","launch_date":"2021-11-03","launch_site_code":"JSC","launch_vehicle":null,"mission":null,"orbit_class":"UNKNOWN","rcs_meters":null,"size_class":null,"mass_kg":null,"dimensions":null,"purposes":[],"wikipedia_slug":null,"has_3d_model":false,"image_url":null,"decayed_at":null,"tle_current":{"epoch":"2026-09-20T23:23:33.255744Z","epoch_age_seconds":63088,"freshness":"FRESH","line1":"1 49384U 21099B   26263.97469046  .00000398  00000+0  84626-4 0  9992","line2":"2 49384  98.2601  37.9881 0000844  77.1232 283.0065 14.64319142260388","mean_motion":14.64319142,"eccentricity":8.44e-5,"inclination_deg":98.2601,"raan_deg":37.9881,"arg_perigee_deg":77.1232,"mean_anomaly_deg":283.0065,"bstar":8.4626e-5,"rev_number":26038,"period_min":98.339218459797,"perigee_km":678.6665178035,"apogee_km":679.85780678209,"semimajor_km":7057.3991622928,"source":"CELESTRAK","updated_at":"2026-09-21T09:00:08.073719Z"}}}